Showing default

LEMUR 2 WILSON, 62694

Orbit data source: Space-Track

LEMUR 2 WILSON, 62694 is a payload satellite owned by Spire (US) in SSO that was launched on Tue, 14 Jan 2025 UTC via an FALCON 9 launch vehicle from the Air Force Western Test Range (AFWTR). Payload-class satellites include a variety of spacecraft equipped with specific instruments for various scientific and technological missions. These include communications satellites like Starlink; space stations such as the ISS; scientific satellites like the Hubble; Earth observation satellites from companies like Planet Labs, Umbra, and HawkEye 360; GPS; miniature CubeSats for education and research; and military/defense satellites.

Loading next visibility...
Identifier
62694, 2025-009CP
Orbit
SSO
Country
Flag of USUS
Related business
Manufacturer
Spire/Glasgow
Mission
Operational Commercial Com/MetRO
Bus & Motor
CUBESAT 3U, Unknown motor
Mass
7.6 kg wet, 7.6 kg dry
Launch date (UTC)
2025-01-14 (1 year ago)
Launch vehicle
FALCON 9
Launch site
Air Force Western Test Range (AFWTR)
Object type
Payload
Rocket body
Debris
Shape & HBR
Box + 2 Pan, 0.5 m
Radar Cross Section
0.063 m², Medium (>0.1 m² and < 1m²)

Expand to show TLE details & history
Last TLE update: 7 hours ago

TLE from 7 hours ago
0 LEMUR 2 WILSON
1 62694U 25009CP  26125.72945384  .00001996  00000-0  18783-3 0  9996
2 62694  97.7026 204.9450 0003673 156.6517 203.4871 14.94983192 71018
Epoch: 2026-05-05T17:30Z
TLE epoch observation values (Epoch: 2026-05-05T17:30:24.811Z)
Latitude
-0.00005°
Longitude
78.74151°
Altitude
587.818 km
Speed
7.565 km/s
True Right ascension
13h 39m 46s
True Declination
0° 00' 00"
Sunlit
Object was in full shadow at epoch
Visualization orbit readout
Latitude
Unknown
Longitude
Unknown
Altitude
Unknown
Speed
Unknown
Apparent Right ascension
Unknown
Apparent Declination
Unknown
Sunlit
N/A
Visualization observer readout
Local Sidereal Time
08:07:03
Azimuth
Unknown
Elevation
Unknown
Doppler factor
Unknown
Orbital elements
Apogee altitude
581.993 km
Perigee altitude
576.881 km
Semi-major axis
6,957.574 km
Eccentricity
0.00037
Inclination
97.7026°
RAAN
204.945°
Arg. of periapsis
156.6517°
True anomaly
203.47033°
Mean anomaly
203.4871°
Eccentric anomaly
203.47872°
Mean motion
3.73987 °/min
Orbital period
96.26 mins
BSTAR
0.00018783
Loading maneuver chart data...
Computing Atmospheric mass density...
Loading historical data...
Loading historical data...
Loading historical data...
Loading historical data...
Loading historical data...
Loading historical data...
Loading historical data...

Documentation

Showing up to 5 results
|